{"data":{"norad_id":47404,"epoch":"2026-05-25T01:13:11.107200Z","epoch_age_seconds":77406,"freshness":"FRESH","line1":"1 47404U 21005BH  26145.05082300  .00144412  00000+0  81404-3 0  9998","line2":"2 47404  53.0434 358.9278 0003533 127.4433 232.6909 15.78252579295671","mean_motion":15.78252579,"eccentricity":0.0003533,"inclination_deg":53.0434,"raan_deg":358.9278,"arg_perigee_deg":127.4433,"mean_anomaly_deg":232.6909,"bstar":0.00081404,"rev_number":29567,"period_min":91.240148703727,"perigee_km":333.01959957065,"apogee_km":337.76337880111,"semimajor_km":6713.5284891859,"source":"CELESTRAK","updated_at":"2026-05-25T13:38:16.555094Z"}}